[[{"header":{"parameterUnit":"m.s-1","parameterCategory":2,"la1":30.2992,"la2":30.254,"lo1":-89.0895,"lo2":-89.0443,"dy":0.0025,"dx":0.0025,"nx":19,"ny":19,"refTime":"2026-05-03T09:00:00:Z","depth":"0","parameterNumber":2,"parameterNumberName":"U-component_of_CURRENTS"},"data":[0,0,0,-0.1306,-0.1309,-0.1445,-0.1446,-0.1587,-0.1588,0,0,0,0,0,0,0,0,0,0,0,-0.1245,-0.1245,-0.1306,-0.131,-0.1445,-0.1446,-0.1587,-0.1588,0,0,0,0,0,0,0,0,0,0,0,-0.1244,-0.1245,-0.1246,-0.131,-0.1445,-0.1446,-0.1587,-0.1492,0,0,0,0,0,0,0,0,0,0,-0.1363,-0.1307,-0.1245,-0.1246,-0.1311,-0.1445,-0.1446,-0.1487,-0.1498,-0.1517,0,-0.1533,0,-0.1573,-0.1597,-0.1598,0,0,0,-0.1307,-0.1298,-0.1344,-0.1246,-0.1312,-0.1445,-0.1383,-0.1493,-0.1505,-0.1531,-0.1536,-0.1542,-0.1575,-0.1598,-0.1599,-0.1754,-0.1754,0,0,-0.1299,-0.1264,-0.1336,-0.1351,-0.1341,-0.1379,-0.1388,-0.1501,-0.1504,-0.1536,-0.1546,-0.1577,-0.1599,-0.16,-0.1753,-0.1754,0,0,0,-0.128,-0.1258,-0.1301,-0.1344,-0.1376,-0.1383,-0.1393,-0.1499,-0.1515,-0.1548,-0.1579,-0.16,-0.1602,-0.1752,-0.1753,-0.1736,0,0,0,-0.1275,-0.1248,-0.1298,-0.1277,-0.1374,-0.1443,-0.1388,-0.1507,-0.1522,-0.1578,-0.16,-0.1603,-0.1752,-0.1753,-0.1734,-0.1709,0,0,0,-0.1239,-0.1245,-0.126,-0.1275,-0.1339,-0.1443,-0.1466,-0.1511,-0.1541,-0.1598,-0.1603,-0.1751,-0.1753,-0.1733,-0.1708,-0.171,0,0,0,-0.12,-0.1223,-0.1258,-0.1307,-0.1337,-0.145,-0.1466,-0.1544,-0.1594,-0.1601,-0.1752,-0.1753,-0.1733,-0.1708,-0.1709,-0.1631,-0.1626,0,0,-0.1209,-0.1223,-0.1258,-0.1294,-0.1395,-0.1431,-0.153,-0.1592,-0.1626,-0.171,-0.1714,-0.1735,-0.1708,-0.171,-0.1726,-0.1717,0,0,0,-0.1249,-0.127,-0.131,-0.1376,-0.1461,-0.1525,-0.16,-0.1636,-0.1709,-0.1665,-0.1773,-0.1757,-0.1758,-0.1712,-0.1707,-0.161,-0.1761,-0.1761,-0.1761,-0.1212,-0.1278,-0.1338,-0.1426,-0.1493,-0.16,-0.1651,-0.1714,-0.1746,-0.1778,-0.1772,-0.1799,-0.1753,-0.1747,-0.1649,-0.1816,-0.1816,-0.1816,-0.1816,-0.1229,-0.1253,-0.1343,-0.142,-0.1503,-0.1579,-0.1694,-0.1724,-0.1795,-0.1808,-0.1811,-0.1732,-0.1739,-0.1638,-0.1816,-0.1816,-0.1816,-0.1816,-0.1816,-0.1181,-0.1196,-0.1263,-0.1366,-0.1444,-0.1549,-0.1599,-0.1685,-0.1761,-0.1777,-0.1729,-0.1728,-0.1611,-0.1776,-0.1776,-0.1776,-0.1776,-0.1776,-0.1776,-0.1084,-0.1153,-0.1206,-0.1311,-0.1362,-0.1429,-0.1541,-0.1585,-0.1652,-0.17,-0.17,-0.1611,-0.1787,-0.1756,-0.1775,-0.1775,-0.1775,-0.1775,-0.1775,-0.1005,-0.1052,-0.1121,-0.118,-0.1299,-0.1302,-0.1411,-0.1459,-0.1524,-0.1537,-0.1501,-0.1669,-0.1662,-0.1667,-0.1635,-0.162,-0.162,-0.162,-0.162,-0.0936,-0.0971,-0.106,-0.1137,-0.1204,-0.125,-0.1215,-0.1286,-0.1353,-0.1358,-0.1384,-0.1362,-0.1373,-0.1349,-0.136,-0.1323,-0.1229,-0.1229,-0.1228,-0.0892,-0.0933,-0.0971,-0.1082,-0.1163,-0.1165,-0.109,-0.1094,-0.1179,-0.1206,-0.1264,-0.1281,-0.1245,-0.127,-0.1233,-0.1257,-0.1196,0,0]},{"header":{"parameterUnit":"m.s-1","parameterCategory":2,"la1":30.2992,"la2":30.254,"lo1":-89.0895,"lo2":-89.0443,"dy":0.0025,"dx":0.0025,"nx":19,"ny":19,"refTime":"2026-05-03T09:00:00:Z","depth":"0","parameterNumber":3,"parameterNumberName":"V-component_of_CURRENTS"},"data":[0,0,0,-0.0124,-0.0128,-0.0312,-0.0313,-0.0375,-0.0375,0,0,0,0,0,0,0,0,0,0,0,-0.0049,-0.0051,-0.0124,-0.0129,-0.0312,-0.0313,-0.0375,-0.0375,0,0,0,0,0,0,0,0,0,0,0,-0.0049,-0.005,-0.0052,-0.013,-0.0312,-0.0313,-0.0374,-0.0275,0,0,0,0,0,0,0,0,0,0,-0.0117,-0.0078,-0.005,-0.0052,-0.0131,-0.0312,-0.0313,-0.0272,-0.0281,-0.0247,0,-0.0288,0,-0.0342,-0.0376,-0.0377,0,0,0,-0.0113,-0.0071,-0.0126,-0.0052,-0.0133,-0.0312,-0.0225,-0.0278,-0.0288,-0.0258,-0.029,-0.0294,-0.0343,-0.0377,-0.0377,-0.0432,-0.0432,0,0,-0.0103,-0.0072,-0.012,-0.0133,-0.0194,-0.0219,-0.0231,-0.0286,-0.0295,-0.029,-0.0297,-0.0344,-0.0377,-0.0377,-0.0431,-0.0432,0,0,0,-0.0084,-0.0064,-0.0121,-0.0128,-0.0181,-0.0225,-0.0238,-0.0292,-0.0314,-0.0298,-0.0345,-0.0377,-0.0377,-0.0431,-0.0431,-0.0493,0,0,0,-0.0078,-0.0056,-0.0117,-0.0098,-0.0182,-0.0264,-0.0242,-0.031,-0.0319,-0.0345,-0.0377,-0.0377,-0.043,-0.0431,-0.049,-0.0524,0,0,0,-0.0038,-0.0051,-0.0078,-0.0096,-0.0186,-0.0265,-0.029,-0.0314,-0.0347,-0.0377,-0.0378,-0.043,-0.0431,-0.0488,-0.052,-0.0569,0,0,0,0.001,-0.0085,-0.0078,-0.0187,-0.0185,-0.0311,-0.0291,-0.0368,-0.0399,-0.0377,-0.043,-0.0431,-0.0487,-0.0517,-0.0566,-0.0595,-0.0611,0,0,-0.0091,-0.0095,-0.016,-0.0161,-0.0288,-0.0284,-0.0393,-0.0415,-0.0396,-0.0395,-0.0399,-0.0491,-0.052,-0.0569,-0.0652,-0.0666,0,0,0,-0.0181,-0.0222,-0.0261,-0.0328,-0.0392,-0.0436,-0.0463,-0.0466,-0.0483,-0.0425,-0.0494,-0.051,-0.0539,-0.055,-0.0562,-0.0249,-0.0436,-0.0436,-0.0436,-0.0275,-0.0303,-0.0394,-0.0433,-0.049,-0.0537,-0.0573,-0.0571,-0.0537,-0.0549,-0.0563,-0.0645,-0.0657,-0.0666,-0.0343,-0.056,-0.0561,-0.0561,-0.0561,-0.0401,-0.0447,-0.0457,-0.0548,-0.0564,-0.0628,-0.0663,-0.0652,-0.0684,-0.0629,-0.0654,-0.0617,-0.0682,-0.0333,-0.0565,-0.0564,-0.0564,-0.0563,-0.0563,-0.0437,-0.0463,-0.0498,-0.0579,-0.0643,-0.068,-0.0761,-0.0758,-0.0742,-0.0771,-0.0771,-0.077,-0.0461,-0.0777,-0.0777,-0.0777,-0.0778,-0.0778,-0.0778,-0.0456,-0.0495,-0.0549,-0.0622,-0.0672,-0.0748,-0.0817,-0.0864,-0.0883,-0.085,-0.085,-0.045,-0.0711,-0.0701,-0.0784,-0.0783,-0.0782,-0.0782,-0.0781,-0.053,-0.0517,-0.0602,-0.0652,-0.0778,-0.0891,-0.0939,-0.1041,-0.106,-0.1085,-0.056,-0.0894,-0.0879,-0.0869,-0.0863,-0.0983,-0.0983,-0.0983,-0.0983,-0.0554,-0.0562,-0.0658,-0.075,-0.087,-0.0968,-0.1156,-0.1198,-0.0892,-0.0617,-0.0462,-0.0358,-0.0364,-0.031,-0.0312,-0.0291,-0.0263,-0.0261,-0.0259,-0.06,-0.0615,-0.0691,-0.0773,-0.0917,-0.1068,-0.125,-0.1244,-0.0617,-0.0192,-0.0015,-0.0046,0.015,0.0115,0.0232,0.0204,0.0249,0,0]}],[{"header":{"parameterUnit":"m.s-1","parameterCategory":2,"la1":30.2992,"la2":30.254,"lo1":-89.0895,"lo2":-89.0443,"dy":0.0025,"dx":0.0025,"nx":19,"ny":19,"refTime":"2026-05-03T09:00:00:Z","depth":"2","parameterNumber":2,"parameterNumberName":"U-component_of_CURRENTS"},"data":[0,0,0,-0.1088,-0.1089,-0.1146,-0.1147,-0.1263,-0.1264,0,0,0,0,0,0,0,0,0,0,0,-0.1058,-0.1057,-0.1088,-0.1089,-0.1146,-0.1147,-0.1263,-0.1264,0,0,0,0,0,0,0,0,0,0,0,-0.1058,-0.1057,-0.1057,-0.1089,-0.1146,-0.1147,-0.1263,-0.1213,0,0,0,0,0,0,0,0,0,0,-0.1154,-0.1132,-0.1057,-0.1057,-0.1089,-0.1146,-0.1147,-0.1211,-0.1216,-0.1243,0,-0.1229,0,-0.1246,-0.1271,-0.1271,0,0,0,-0.1108,-0.1127,-0.1121,-0.1057,-0.1089,-0.1146,-0.1126,-0.1214,-0.122,-0.1251,-0.1231,-0.1235,-0.1248,-0.1272,-0.1272,-0.1438,-0.1439,0,0,-0.1105,-0.1097,-0.1116,-0.1124,-0.1075,-0.1124,-0.1127,-0.1217,-0.1225,-0.1231,-0.1238,-0.125,-0.1272,-0.1273,-0.1437,-0.1439,0,0,0,-0.1083,-0.1095,-0.1087,-0.1119,-0.1125,-0.1125,-0.1129,-0.1222,-0.1212,-0.1239,-0.1252,-0.1273,-0.1274,-0.1436,-0.1438,-0.1405,0,0,0,-0.1082,-0.1081,-0.1085,-0.1086,-0.1122,-0.1173,-0.1132,-0.1205,-0.1216,-0.1251,-0.1273,-0.1275,-0.1435,-0.1437,-0.1403,-0.1416,0,0,0,-0.106,-0.108,-0.1072,-0.1085,-0.11,-0.1172,-0.1169,-0.1208,-0.1224,-0.1271,-0.1275,-0.1434,-0.1437,-0.1402,-0.1413,-0.1472,0,0,0,-0.1072,-0.1075,-0.1071,-0.1081,-0.1098,-0.115,-0.1169,-0.1227,-0.1268,-0.1273,-0.1435,-0.1438,-0.1401,-0.1412,-0.147,-0.1435,-0.1442,0,0,-0.1086,-0.1076,-0.1081,-0.1079,-0.1112,-0.1145,-0.1223,-0.128,-0.1321,-0.1409,-0.1413,-0.1404,-0.1413,-0.1472,-0.1578,-0.158,0,0,0,-0.1094,-0.1088,-0.1099,-0.1111,-0.1147,-0.1209,-0.1266,-0.1321,-0.141,-0.1352,-0.1464,-0.1473,-0.1509,-0.1486,-0.1489,-0.145,-0.1449,-0.1449,-0.1449,-0.11,-0.1106,-0.1119,-0.1134,-0.1174,-0.127,-0.1348,-0.1441,-0.1438,-0.1494,-0.1488,-0.1574,-0.1548,-0.155,-0.1525,-0.1525,-0.1525,-0.1525,-0.1525,-0.1096,-0.1083,-0.1117,-0.1134,-0.1199,-0.1264,-0.1411,-0.1452,-0.1582,-0.1556,-0.1591,-0.1506,-0.1551,-0.1523,-0.1524,-0.1524,-0.1524,-0.1524,-0.1524,-0.1057,-0.1055,-0.1074,-0.1111,-0.1172,-0.1254,-0.1356,-0.1465,-0.1567,-0.1616,-0.1603,-0.1603,-0.1547,-0.1608,-0.1609,-0.1609,-0.1609,-0.161,-0.161,-0.1006,-0.1026,-0.1041,-0.1088,-0.1104,-0.1168,-0.1326,-0.1422,-0.1547,-0.161,-0.161,-0.1604,-0.1601,-0.1557,-0.1615,-0.1614,-0.1613,-0.1613,-0.1612,-0.0935,-0.097,-0.0982,-0.1002,-0.1048,-0.1062,-0.122,-0.1406,-0.1538,-0.1609,-0.1636,-0.1634,-0.1656,-0.1653,-0.1614,-0.1683,-0.1683,-0.1683,-0.1683,-0.0894,-0.0911,-0.0934,-0.0944,-0.0956,-0.101,-0.1119,-0.1305,-0.1497,-0.1544,-0.1549,-0.1483,-0.1483,-0.1492,-0.1493,-0.145,-0.1476,-0.1476,-0.1475,-0.0858,-0.0877,-0.0875,-0.0903,-0.0896,-0.0925,-0.1033,-0.1126,-0.1232,-0.1463,-0.1472,-0.1678,-0.1593,-0.1589,-0.1613,-0.161,-0.1544,0,0]},{"header":{"parameterUnit":"m.s-1","parameterCategory":2,"la1":30.2992,"la2":30.254,"lo1":-89.0895,"lo2":-89.0443,"dy":0.0025,"dx":0.0025,"nx":19,"ny":19,"refTime":"2026-05-03T09:00:00:Z","depth":"2","parameterNumber":3,"parameterNumberName":"V-component_of_CURRENTS"},"data":[0,0,0,0.0228,0.0232,0.0356,0.0357,0.0471,0.0473,0,0,0,0,0,0,0,0,0,0,0,0.0187,0.0189,0.0228,0.0233,0.0356,0.0357,0.0471,0.0473,0,0,0,0,0,0,0,0,0,0,0,0.0186,0.0188,0.019,0.0233,0.0356,0.0357,0.0471,0.038,0,0,0,0,0,0,0,0,0,0,0.0262,0.0209,0.0188,0.019,0.0234,0.0356,0.0357,0.0376,0.0386,0.0412,0,0.0463,0,0.0485,0.0482,0.0483,0,0,0,0.0201,0.02,0.0275,0.0191,0.0236,0.0356,0.0292,0.0382,0.0393,0.0425,0.0465,0.0469,0.0487,0.0483,0.0484,0.0527,0.0526,0,0,0.0194,0.0163,0.0268,0.0283,0.0309,0.0288,0.0296,0.0389,0.0393,0.0465,0.0472,0.0489,0.0484,0.0485,0.0528,0.0527,0,0,0,0.0196,0.0158,0.0229,0.0278,0.0313,0.0292,0.0301,0.0388,0.0425,0.0474,0.0491,0.0485,0.0487,0.0528,0.0527,0.0383,0,0,0,0.019,0.0162,0.0226,0.0202,0.0312,0.035,0.0298,0.0418,0.0429,0.049,0.0485,0.0488,0.0529,0.0528,0.0389,0.0336,0,0,0,0.0174,0.0158,0.0195,0.0201,0.0274,0.035,0.0389,0.042,0.0441,0.0483,0.0488,0.0529,0.0528,0.0393,0.0344,0.0252,0,0,0,0.0105,0.0138,0.0194,0.0216,0.0274,0.0311,0.0388,0.0388,0.0409,0.0486,0.0529,0.0527,0.0395,0.0349,0.0257,0.0267,0.0241,0,0,0.0099,0.0136,0.0143,0.0198,0.0211,0.0289,0.0276,0.0332,0.0401,0.0492,0.0494,0.0387,0.0345,0.0253,0.0184,0.0161,0,0,0,0.0107,0.0114,0.0128,0.0153,0.0206,0.0218,0.0284,0.0307,0.0337,0.042,0.0398,0.0377,0.0323,0.0341,0.0323,0.0521,0.0521,0.0521,0.0521,-0.0009,0.0034,0.0033,0.009,0.0109,0.0154,0.0151,0.0201,0.0281,0.0255,0.0267,0.0112,0.0131,0.0117,0.0272,0.0272,0.0271,0.0271,0.027,-0.0068,-0.0068,-0.0038,-0.0026,0.0004,-0.0004,0.0047,0.0067,0.0058,0.0152,0.0105,0.0199,0.0088,0.0259,0.0261,0.0263,0.0264,0.0265,0.0266,-0.0159,-0.0142,-0.014,-0.0134,-0.0155,-0.0109,-0.0153,-0.011,-0.0076,-0.0121,-0.0088,-0.0084,0.0016,-0.0153,-0.0154,-0.0155,-0.0155,-0.0156,-0.0156,-0.0246,-0.0227,-0.026,-0.0244,-0.0258,-0.0283,-0.0277,-0.03,-0.0291,-0.0236,-0.0235,-0.003,-0.0016,-0.0007,-0.0167,-0.0165,-0.0163,-0.0163,-0.0162,-0.0302,-0.0336,-0.0363,-0.0384,-0.0397,-0.0445,-0.0435,-0.0481,-0.0502,-0.0513,-0.0298,-0.0292,-0.0243,-0.0225,-0.0219,-0.0425,-0.0425,-0.0425,-0.0425,-0.0381,-0.0383,-0.0459,-0.0482,-0.0509,-0.0513,-0.0615,-0.0518,-0.0423,-0.0244,-0.0251,-0.0132,-0.0127,-0.0062,-0.0048,-0.0034,-0.0191,-0.019,-0.019,-0.0431,-0.0452,-0.0514,-0.0532,-0.0544,-0.0601,-0.0674,-0.0473,-0.0099,-0.017,-0.0105,-0.0429,-0.027,-0.0256,-0.016,-0.0136,-0.0114,0,0]}],[{"header":{"parameterUnit":"m.s-1","parameterCategory":2,"la1":30.2992,"la2":30.254,"lo1":-89.0895,"lo2":-89.0443,"dy":0.0025,"dx":0.0025,"nx":19,"ny":19,"refTime":"2026-05-03T09:00:00:Z","depth":"4","parameterNumber":2,"parameterNumberName":"U-component_of_CURRENTS"},"data":[0,0,0,-0.0845,-0.0846,-0.0873,-0.0873,-0.0836,-0.0836,0,0,0,0,0,0,0,0,0,0,0,-0.0836,-0.0836,-0.0845,-0.0846,-0.0873,-0.0873,-0.0836,-0.0836,0,0,0,0,0,0,0,0,0,0,0,-0.0836,-0.0836,-0.0837,-0.0846,-0.0873,-0.0873,-0.0837,-0.0832,0,0,0,0,0,0,0,0,0,0,-0.0814,-0.0821,-0.0836,-0.0837,-0.0847,-0.0873,-0.0873,-0.0833,-0.0832,-0.0806,0,-0.0818,0,-0.0828,-0.0833,-0.0832,0,0,0,-0.0839,-0.0821,-0.0827,-0.0837,-0.0847,-0.0873,-0.0859,-0.0833,-0.0833,-0.0805,-0.0818,-0.0817,-0.0827,-0.0832,-0.0832,-0.0824,-0.0824,0,0,-0.0837,-0.0838,-0.0828,-0.0827,-0.0863,-0.0858,-0.086,-0.0833,-0.0836,-0.0818,-0.0817,-0.0827,-0.0832,-0.0831,-0.0824,-0.0824,0,0,0,-0.0838,-0.0837,-0.0845,-0.0828,-0.084,-0.0859,-0.0861,-0.0837,-0.084,-0.0816,-0.0826,-0.0832,-0.0831,-0.0823,-0.0824,-0.0873,0,0,0,-0.0837,-0.0838,-0.0844,-0.0844,-0.0841,-0.085,-0.0865,-0.0842,-0.0839,-0.0826,-0.0832,-0.083,-0.0823,-0.0824,-0.0871,-0.0868,0,0,0,-0.0833,-0.0837,-0.0843,-0.0845,-0.086,-0.0851,-0.0852,-0.0842,-0.0845,-0.0832,-0.083,-0.0823,-0.0823,-0.0869,-0.0865,-0.0896,0,0,0,-0.0828,-0.083,-0.0844,-0.0851,-0.086,-0.0858,-0.0853,-0.0848,-0.0838,-0.0831,-0.0823,-0.0824,-0.0869,-0.0864,-0.0895,-0.0734,0,0,0,-0.0823,-0.083,-0.0834,-0.0846,-0.0841,-0.0853,-0.0857,-0.0845,-0.0841,-0.0824,-0.0825,-0.0872,-0.0865,-0.0896,-0.0777,0,0,0,0,-0.0826,-0.0826,-0.0828,-0.0834,-0.0838,-0.0847,-0.0844,-0.0864,-0.0883,-0.0841,-0.0872,-0.0866,-0.0884,-0.0786,-0.0827,-0.0827,-0.0827,-0.0827,-0.0827,-0.0787,-0.0802,-0.0797,-0.081,-0.0817,-0.084,-0.0866,-0.0891,-0.0883,-0.0916,-0.0908,-0.0963,-0.0861,-0.0922,-0.0922,-0.0923,-0.0923,-0.0923,-0.0923,-0.0752,-0.0746,-0.077,-0.0769,-0.0792,-0.0803,-0.0883,-0.0915,-0.097,-0.0957,-0.0974,-0.0846,-0.0928,-0.0927,-0.0926,-0.0926,-0.0925,-0.0925,-0.0925,-0.0714,-0.0714,-0.072,-0.0716,-0.0744,-0.0794,-0.0867,-0.0947,-0.0999,-0.1024,-0.0917,-0.099,-0.0984,-0.104,-0.104,-0.104,-0.1041,-0.1041,-0.1041,-0.0666,-0.0676,-0.0645,-0.0663,-0.0661,-0.0726,-0.086,-0.0902,-0.0971,-0.0936,-0.1033,-0.1002,-0.0998,-0.099,-0.1043,-0.1043,-0.1042,-0.1042,-0.1042,-0.0616,-0.0609,-0.0564,-0.0545,-0.0542,-0.0593,-0.0747,-0.0831,-0.0849,-0.0845,-0.0894,-0.0901,-0.0863,-0.0863,-0.0849,-0.0862,-0.086,-0.0858,0,-0.0562,-0.0561,-0.0476,-0.043,-0.0399,-0.051,-0.0522,-0.0608,-0.0713,-0.0693,-0.0821,-0.0873,-0.0878,-0.0831,-0.0827,-0.0807,0,0,0,-0.0503,-0.0489,-0.0411,-0.0371,-0.033,-0.0403,-0.0525,-0.0546,-0.0701,-0.0701,-0.0811,-0.0823,-0.0903,-0.1049,-0.1008,-0.1003,-0.0988,0,0]},{"header":{"parameterUnit":"m.s-1","parameterCategory":2,"la1":30.2992,"la2":30.254,"lo1":-89.0895,"lo2":-89.0443,"dy":0.0025,"dx":0.0025,"nx":19,"ny":19,"refTime":"2026-05-03T09:00:00:Z","depth":"4","parameterNumber":3,"parameterNumberName":"V-component_of_CURRENTS"},"data":[0,0,0,0.0279,0.0284,0.0482,0.0483,0.0544,0.0544,0,0,0,0,0,0,0,0,0,0,0,0.0208,0.0209,0.0279,0.0284,0.0482,0.0483,0.0544,0.0544,0,0,0,0,0,0,0,0,0,0,0,0.0207,0.0209,0.0211,0.0285,0.0482,0.0483,0.0544,0.044,0,0,0,0,0,0,0,0,0,0,0.0271,0.0226,0.0208,0.0211,0.0286,0.0482,0.0483,0.0437,0.0447,0.0401,0,0.0446,0,0.0496,0.0544,0.0544,0,0,0,0.0278,0.0219,0.0283,0.0211,0.0288,0.0481,0.0391,0.0444,0.0454,0.0412,0.0447,0.0451,0.0497,0.0544,0.0544,0.0508,0.0508,0,0,0.0267,0.0226,0.0277,0.029,0.0353,0.0384,0.0397,0.0452,0.0456,0.0448,0.0454,0.0498,0.0544,0.0544,0.0508,0.0508,0,0,0,0.024,0.0218,0.0286,0.0286,0.0338,0.039,0.0405,0.0454,0.0481,0.0455,0.0499,0.0544,0.0544,0.0509,0.0508,0.0474,0,0,0,0.0233,0.0204,0.0281,0.0256,0.0339,0.0423,0.0405,0.0478,0.0486,0.0499,0.0544,0.0544,0.0509,0.0509,0.0476,0.0434,0,0,0,0.0196,0.0199,0.023,0.0254,0.0345,0.0425,0.0455,0.0482,0.0512,0.0544,0.0544,0.051,0.0509,0.0478,0.0437,0.0465,0,0,0,0.0136,0.02,0.0229,0.0292,0.0344,0.0408,0.0456,0.0504,0.0528,0.0544,0.0509,0.0508,0.0478,0.044,0.0466,0.0439,0,0,0,0.0185,0.0205,0.0238,0.027,0.0316,0.0379,0.0392,0.0453,0.0492,0.0477,0.0479,0.0475,0.0438,0.0465,0.0379,0,0,0,0,0.0231,0.025,0.027,0.0303,0.0348,0.0344,0.041,0.0439,0.0474,0.0507,0.0464,0.044,0.046,0.0447,0.0503,0.0503,0.0504,0.0504,0.0504,0.0226,0.0244,0.0262,0.0276,0.0286,0.0314,0.0334,0.0372,0.0417,0.0431,0.0406,0.0386,0.0369,0.0412,0.0412,0.0412,0.0412,0.0412,0.0411,0.0249,0.0253,0.0221,0.025,0.0215,0.0208,0.0241,0.029,0.0334,0.0363,0.0386,0.04,0.0408,0.0409,0.0409,0.0409,0.041,0.041,0.041,0.0233,0.0234,0.0241,0.0219,0.0169,0.016,0.0152,0.02,0.0288,0.0297,0.033,0.0368,0.0382,0.0333,0.0333,0.0332,0.0332,0.0332,0.0332,0.0221,0.0222,0.0222,0.0191,0.0161,0.012,0.0115,0.0148,0.0213,0.0264,0.0293,0.036,0.0363,0.0377,0.0331,0.0331,0.0331,0.0332,0.0332,0.0234,0.0231,0.0234,0.0216,0.0139,0.0085,0.0076,0.0118,0.0155,0.0219,0.0273,0.0276,0.0292,0.0297,0.031,0.0242,0.0241,0.0241,0,0.0231,0.0232,0.024,0.0215,0.0132,0.0071,0.0051,0.0072,0.0169,0.0175,0.019,0.0249,0.0252,0.0268,0.0271,0.0285,0,0,0,0.0226,0.0231,0.0241,0.0226,0.0133,0.0064,0.0036,0.0066,0.0143,0.0173,0.0228,0.0231,0.0255,0.0327,0.036,0.0363,0.0389,0,0]}]]